Lapse_Rate
6.2 6.0 6.0 6.0 6.0 5.6 5.2 5.2 5.3 5.2 5.3 5.3 5.5 5.9 6.2 6.4 6.5 6.7 6.7 6.7 6.7 6.7 6.7 6.6 6.4 6.4 6.3 6.4 6.6 6.6 6.6 6.9 7.0 7.2 7.5 7.7 7.7 7.6 7.5 7.1 7.1 7.2 6.9 6.6 6.6 6.1 5.5
6.2 6.3 6.3 6.2 6.0 5.7 5.4 5.3 5.4 5.3 5.2 5.2 5.3 5.5 5.9 6.2 6.5 6.6 7.0 7.1 6.9 6.8 6.8 6.9 6.7 6.6 6.7 6.6 6.9 6.9 6.8 7.0 7.0 7.1 7.3 7.6 7.8 7.7 7.6 7.3 7.2 7.1 7.0 6.6 6.2 6.2 6.0
6.0 6.2 6.3 6.4 6.2 6.0 5.4 5.2 5.3 5.4 5.2 5.1 5.1 5.3 5.7 6.0 6.3 6.5 6.8 7.2 7.2 7.0 6.8 7.0 7.0 6.9 6.9 6.9 7.0 7.1 7.1 7.0 7.3 7.2 7.1 7.4 7.7 7.7 7.7 7.7 7.3 7.1 7.0 6.5 6.1 5.7 6.0
6.0 6.1 6.0 6.2 6.3 6.0 5.8 5.5 5.2 5.3 5.3 5.0 5.1 5.1 5.4 5.8 6.1 6.4 6.7 7.1 7.3 7.3 7.1 7.1 7.1 7.0 7.0 7.1 7.1 7.0 7.1 7.2 7.3 7.4 7.3 7.5 7.9 7.8 7.4 7.6 7.1 6.4 6.4 5.8 5.7 5.7 6.1
5.7 5.8 6.0 5.9 6.1 6.1 6.0 5.9 5.7 5.2 5.2 5.2 5.0 5.1 5.3 5.6 5.8 6.2 6.5 6.9 7.2 7.3 7.4 7.3 7.1 7.1 7.0 7.1 7.0 7.1 7.2 7.3 7.3 7.4 7.5 7.7 7.8 7.4 7.2 7.2 6.7 6.3 6.0 6.0 6.0 6.3 6.2
5.6 5.6 5.7 5.9 6.0 6.0 6.0 5.9 5.8 5.6 5.3 5.2 5.3 5.2 5.2 5.4 5.7 5.9 6.3 6.8 7.2 7.2 7.4 7.9 7.4 7.2 7.0 7.0 6.8 6.9 7.1 7.4 7.4 7.4 7.5 7.6 7.7 7.5 6.8 6.7 6.8 6.8 6.6 6.6 6.7 6.5 6.5
5.5 5.5 5.4 5.5 5.8 6.0 6.0 6.0 6.0 5.8 5.3 5.3 5.2 5.3 5.3 5.2 5.6 5.8 6.1 6.6 7.0 7.2 7.5 7.5 7.7 7.6 7.5 7.2 6.8 6.6 6.8 7.1 7.4 7.5 7.4 7.6 7.7 7.3 6.7 6.9 6.9 7.2 7.2 7.0 6.6 6.6 6.5
5.7 5.4 5.4 5.5 5.5 5.7 5.9 6.0 5.9 6.0 5.8 5.3 5.2 5.2 5.3 5.2 5.4 5.7 5.9 6.4 6.8 7.0 7.2 7.6 7.7 7.7 7.6 7.4 7.1 6.6 6.5 6.6 7.0 7.2 7.4 7.5 7.5 7.2 7.4 7.2 7.2 7.2 7.2 7.1 6.9 6.7 6.6
5.5 5.5 5.4 5.4 5.4 5.5 5.7 5.8 5.9 6.0 5.9 5.5 5.3 5.3 5.3 5.2 5.3 5.5 5.7 6.2 6.5 6.8 6.9 7.1 7.5 7.7 7.5 7.5 7.3 6.9 6.6 6.7 6.7 7.0 7.3 7.6 7.5 7.3 7.5 7.3 7.4 7.4 7.4 7.4 7.4 6.9 6.6
5.6 5.5 5.2 5.3 5.3 5.3 5.5 5.6 5.7 5.8 6.0 5.8 5.4 5.4 5.4 5.1 5.3 5.4 5.6 5.9 6.2 6.4 6.7 6.9 7.3 7.4 7.4 7.4 7.3 7.0 6.7 6.7 6.7 6.8 7.2 7.3 7.5 7.2 7.5 7.3 7.4 7.6 7.5 7.4 7.2 6.9 6.6
5.5 5.5 5.3 5.0 5.1 5.2 5.3 5.4 5.5 5.6 5.7 5.9 5.6 5.1 5.4 5.2 5.2 5.3 5.5 5.8 6.0 6.2 5.5 6.8 6.9 7.1 7.2 7.3 7.3 7.1 7.1 7.1 6.8 6.9 6.9 7.4 7.3 7.0 7.2 7.4 7.4 7.5 7.3 7.2 6.8 6.7 6.6
5.2 5.2 5.4 5.2 5.1 5.1 5.2 5.3 5.4 5.5 5.5 5.7 5.7 5.2 5.2 5.4 5.4 5.4 5.4 5.6 5.9 5.9 6.0 6.7 6.6 6.8 7.0 7.2 7.3 7.2 6.9 7.1 7.1 6.9 6.8 7.2 7.2 7.1 7.0 7.3 7.2 7.2 7.1 6.8 6.6 6.3 6.1
5.4 5.1 5.1 5.2 5.1 4.9 5.1 5.1 5.2 5.4 5.4 5.5 5.7 5.5 5.3 5.5 5.5 5.6 5.5 5.4 5.7 5.5 6.5 6.6 6.7 6.8 6.8 6.9 7.0 7.3 6.9 6.8 6.9 7.0 6.9 7.1 7.2 7.1 7.0 7.1 7.0 7.1 7.2 6.5 6.3 5.9 6.2
5.3 5.5 5.2 5.1 5.2 4.9 4.8 5.0 5.1 5.2 5.4 5.5 5.6 5.8 5.7 5.8 5.7 5.7 5.7 5.3 5.3 5.8 6.6 6.6 6.6 6.6 6.6 6.8 6.8 7.2 7.1 6.9 7.0 7.2 7.1 7.0 7.0 7.1 7.0 7.0 7.2 7.0 7.2 7.3 6.4 6.1 6.4
5.5 5.5 5.4 5.4 5.1 5.1 4.8 4.9 4.9 5.1 5.2 5.5 5.5 5.7 5.9 5.7 6.0 5.9 5.9 4.8 5.3 6.1 6.6 6.7 6.7 6.8 6.7 6.7 6.9 7.2 7.3 7.2 7.2 7.3 7.4 7.3 7.0 7.2 7.0 7.0 7.0 6.9 6.9 7.3 7.1 5.7 5.4
5.4 5.1 5.3 5.3 5.1 5.5 5.0 4.9 5.0 5.0 5.1 5.3 5.5 5.6 5.9 5.7 6.0 6.0 5.6 4.8 5.1 6.0 6.7 6.8 6.7 6.9 7.0 6.9 6.8 7.3 7.3 7.3 7.4 7.4 7.5 7.4 7.2 6.9 7.0 6.9 6.9 6.8 7.0 6.7 6.8 5.7 5.7
5.5 5.5 5.2 5.4 5.2 5.5 5.4 5.1 5.1 5.0 5.0 5.3 5.4 5.5 5.8 5.7 5.6 5.1 5.1 4.8 5.1 5.8 6.6 6.7 6.5 6.9 7.0 7.2 7.0 7.3 7.5 7.6 7.7 7.6 7.4 7.3 7.4 6.9 6.7 6.7 6.8 6.7 6.6 6.6 6.7 6.5 5.9
6.0 5.8 5.8 5.9 5.3 5.3 5.4 5.1 5.1 5.1 5.1 5.2 5.4 5.6 5.7 5.9 5.3 4.7 4.6 4.7 4.8 5.7 6.3 6.6 6.4 6.6 6.8 7.2 7.3 7.3 7.5 7.6 7.8 7.6 7.4 7.4 7.4 7.0 6.9 6.8 6.8 6.7 6.6 6.6 6.6 6.2 6.1
6.1 6.2 6.0 6.0 5.9 5.7 5.9 5.4 5.2 5.3 5.3 5.2 5.2 5.4 5.4 5.9 5.5 4.7 4.5 4.6 5.1 5.6 5.6 6.5 6.4 6.6 6.6 6.9 7.0 7.2 7.5 7.7 7.6 7.5 7.3 7.2 7.2 7.1 6.7 6.6 6.7 6.7 6.8 6.6 6.5 6.3 6.0
6.3 6.4 6.3 6.2 6.2 6.2 5.9 5.9 5.6 5.3 5.5 5.3 5.2 5.2 5.1 5.3 5.6 5.1 4.7 4.8 5.1 5.7 5.0 6.2 6.4 6.3 6.6 6.7 6.9 7.3 7.3 7.4 7.5 7.3 7.2 7.1 7.4 7.6 7.5 7.1 7.0 6.9 6.7 6.4 6.2 5.9 6.1
6.0 6.2 6.3 6.4 6.3 6.4 6.3 6.3 6.1 5.8 5.8 5.6 5.3 5.1 4.6 5.1 5.6 4.6 4.4 4.6 5.1 5.6 5.7 5.7 6.3 6.2 6.6 6.7 6.9 7.0 7.1 7.2 7.3 7.3 7.2 7.4 7.5 7.5 7.5 7.3 6.8 6.6 6.6 6.5 6.4 6.4 6.0
5.7 5.7 6.0 6.1 6.4 6.5 6.3 6.5 6.2 6.0 5.8 5.9 5.2 5.1 4.4 4.6 5.2 5.0 4.9 4.6 4.6 5.8 5.5 5.6 6.1 6.4 6.6 6.8 7.0 7.2 7.1 7.3 7.4 7.2 7.0 6.9 7.4 7.4 7.3 7.2 7.1 7.0 6.8 6.7 6.6 6.4 6.3
5.8 5.6 5.7 5.9 6.2 6.5 6.6 6.5 6.5 6.2 6.1 6.3 5.9 5.7 4.8 5.0 4.9 4.7 4.9 4.3 4.9 5.9 5.7 5.3 6.0 6.3 6.6 7.0 6.9 6.9 6.9 7.0 7.0 7.1 7.0 6.8 7.0 7.2 6.8 7.0 6.7 6.3 7.0 6.8 6.6 6.3 6.1
5.8 5.7 5.5 5.7 5.8 6.0 6.3 6.3 6.2 6.0 5.8 5.9 6.1 5.6 5.2 5.0 5.2 5.5 5.1 4.9 5.1 5.7 5.6 5.4 5.4 6.3 6.5 6.7 6.6 6.6 6.7 6.8 6.8 6.6 6.8 6.6 6.8 6.7 6.3 6.3 5.4 6.5 6.5 6.6 6.4 6.2 6.0
5.7 5.8 5.6 5.4 5.3 5.3 5.5 5.8 5.7 5.4 5.1 5.8 6.0 5.8 5.8 5.5 6.0 5.5 5.3 5.2 5.3 5.4 5.2 5.3 4.8 5.8 6.5 6.4 6.4 6.1 6.0 6.2 6.3 6.4 6.4 6.6 6.6 6.2 5.7 5.8 5.9 6.4 6.3 6.0 5.9 5.9 5.8
5.8 5.7 5.5 5.5 5.4 5.3 5.3 5.5 5.5 5.2 5.2 5.2 5.9 5.7 6.0 5.9 6.5 6.3 6.2 5.9 5.7 5.3 5.2 5.4 5.4 5.4 6.2 6.0 6.2 5.8 5.8 5.9 6.1 6.2 6.3 6.4 6.2 5.8 5.5 5.3 5.0 6.0 5.9 5.8 5.7 5.7 5.6
5.8 5.7 5.6 5.5 5.5 5.4 5.2 5.3 5.3 5.2 5.3 5.3 6.0 5.8 5.8 6.1 7.0 6.8 6.8 6.2 6.3 5.9 5.1 5.2 5.6 5.2 5.6 5.9 5.9 6.0 6.0 6.1 6.4 6.2 6.3 6.1 5.8 5.5 5.5 5.2 5.5 5.6 5.4 5.4 5.3 5.6 5.7
5.6 5.6 5.6 5.6 5.4 5.3 5.2 5.3 5.3 5.2 5.5 5.4 5.9 5.7 5.8 6.3 7.1 6.6 6.9 6.8 6.4 6.1 5.5 5.3 5.5 5.5 5.0 5.7 6.2 6.2 6.0 6.1 6.3 6.2 6.6 6.8 5.8 5.5 5.1 4.8 5.1 5.7 5.3 5.1 5.5 5.6 5.5
5.5 5.3 5.3 5.2 5.0 5.0 5.2 5.3 5.3 5.3 5.5 5.5 5.6 5.7 5.7 6.0 6.6 6.6 6.9 6.8 6.2 6.4 6.6 5.9 5.8 5.8 5.3 5.5 6.0 6.0 6.0 5.9 6.0 6.1 6.4 6.2 6.1 6.0 6.0 6.0 5.8 5.5 5.5 5.3 5.4 5.4 5.5
Wind_Speed
15 16 17 18 18 18 18 19 20 23 23 20 19 22 26 26 27 28 28 28 28 27 26 23 21 20 1 5 2 9 21 6 12 6 7 5 5 5 6 8 13 10 6 7 10 8 6
15 15 16 17 18 17 18 18 20 22 22 23 21 21 24 28 29 30 30 29 30 28 27 22 17 14 2 4 5 14 11 6 5 5 4 2 7 13 11 5 4 7 14 11 6 6 3
12 14 15 16 16 18 18 19 20 20 22 24 23 22 25 28 30 31 33 32 31 29 25 18 9 2 4 3 6 13 8 1 3 10 11 9 10 5 9 13 12 15 14 9 4 1 3
12 13 13 14 16 17 18 18 20 21 22 24 25 24 24 27 32 34 35 36 32 26 19 10 2 2 1 1 4 9 8 11 17 20 18 16 16 13 5 16 5 7 4 5 3 1 2
12 13 13 13 15 15 16 18 19 21 22 23 24 26 26 27 32 36 37 38 30 14 11 7 2 3 2 7 5 6 4 8 8 10 10 6 8 7 9 14 6 2 6 3 5 5 4
10 13 13 13 14 15 15 16 18 20 21 22 24 26 26 28 31 36 39 34 13 8 4 2 3 4 5 3 4 4 4 3 4 1 4 7 6 5 6 2 5 5 4 2 4 7 4
7 10 11 13 14 14 16 17 17 19 21 22 23 25 27 28 31 36 16 4 6 5 8 2 1 3 2 5 3 4 3 2 2 7 3 3 8 13 16 2 5 8 6 5 4 6 8
8 8 10 12 13 15 16 17 17 18 20 22 23 25 27 30 30 23 5 5 4 1 6 4 5 4 3 2 1 3 3 2 4 3 3 3 6 9 9 6 8 5 4 4 1 1 8
9 9 9 11 12 13 15 16 17 18 19 21 23 24 27 31 28 5 3 4 9 1 2 5 3 2 2 2 3 2 3 2 4 2 0 3 6 12 8 5 3 3 3 5 2 4 2
9 9 9 10 11 13 13 15 16 17 19 21 23 24 27 38 3 3 1 8 8 2 3 3 2 2 0 3 2 1 2 2 4 4 3 4 1 7 7 5 4 1 7 6 10 4 1
8 9 10 9 10 12 13 14 15 17 18 20 22 24 26 14 5 2 5 15 6 2 3 3 1 2 2 4 1 2 2 4 5 4 3 1 1 2 4 4 4 3 8 6 3 2 1
7 8 9 10 10 11 13 14 14 16 18 19 21 23 24 3 2 4 16 8 2 5 5 1 0 1 3 3 2 2 2 6 4 4 5 2 1 2 3 3 1 11 6 6 3 1 2
8 8 9 9 11 11 12 13 14 16 18 19 20 23 16 9 2 13 9 3 4 3 3 2 2 2 2 2 2 2 2 3 3 4 2 2 2 2 1 4 3 2 4 1 0 0 4
11 8 8 10 10 12 12 13 14 15 18 20 22 25 6 9 7 11 3 3 4 4 4 2 2 3 4 3 1 2 3 3 2 4 3 5 2 1 4 0 4 2 3 4 5 3 1
11 9 9 9 10 11 13 12 13 14 17 19 19 4 3 4 5 1 2 2 8 7 3 5 2 3 2 1 4 2 2 4 4 5 4 4 2 2 3 2 2 4 3 2 6 2 1
14 12 9 8 10 8 12 12 11 13 16 18 4 3 3 2 9 3 2 5 4 4 3 1 6 2 6 5 3 4 5 2 4 4 2 5 3 1 2 1 4 0 4 3 2 3 4
14 13 11 8 10 8 9 11 11 11 15 16 2 3 1 4 2 2 4 5 5 6 4 3 5 3 3 5 5 4 4 1 1 3 3 3 3 1 1 2 5 2 1 5 4 1 2
15 13 11 9 10 9 9 10 11 9 14 6 2 2 1 1 4 2 4 6 2 3 2 2 3 2 5 6 4 4 6 2 2 4 5 1 4 3 1 1 1 0 2 3 3 4 0
18 15 13 13 11 11 9 9 10 8 6 1 2 2 1 1 6 5 2 3 1 4 4 6 5 3 2 5 3 3 4 1 2 4 6 6 1 2 1 0 2 2 1 3 4 2 6
20 18 16 15 13 11 10 10 10 7 2 1 2 1 2 2 1 4 5 3 5 3 7 3 4 3 3 2 2 5 3 0 1 3 0 7 3 5 5 2 3 2 4 2 3 3 4
22 20 18 17 15 12 11 11 11 8 3 1 1 2 3 4 5 1 6 8 10 2 2 3 1 4 6 3 2 3 2 2 2 3 2 3 3 2 1 2 2 1 4 7 7 5 6
23 22 21 19 16 14 13 12 11 9 5 1 2 2 3 1 2 12 5 8 14 11 4 5 2 6 5 7 7 8 6 4 4 2 2 2 3 2 2 2 2 4 7 8 10 5 11
24 23 22 20 17 16 14 14 13 11 9 3 2 3 2 5 2 7 13 7 9 11 14 16 10 4 4 5 4 1 3 4 4 7 4 3 5 3 2 2 2 5 8 10 5 4 5
22 23 24 22 20 19 18 16 15 14 14 2 2 2 3 4 6 8 8 11 17 8 6 9 7 2 2 12 9 9 11 10 9 8 2 6 5 2 2 1 2 3 2 2 5 5 10
22 22 23 24 23 21 20 18 17 16 16 3 2 1 2 3 5 7 12 9 13 8 9 13 9 3 4 3 4 4 4 4 5 7 5 2 5 3 3 3 5 3 2 4 5 1 3
24 24 25 26 24 22 20 19 18 17 17 4 2 2 2 3 5 5 8 15 11 7 7 6 5 2 4 2 3 5 5 5 4 2 3 6 5 3 3 3 4 3 2 2 2 2 3
24 25 26 26 24 23 20 19 19 19 19 7 2 11 3 3 9 7 5 5 7 6 4 4 4 1 2 2 2 3 3 3 6 8 5 3 3 4 3 2 6 6 5 2 2 2 4
24 25 25 26 24 23 21 20 20 19 19 10 2 9 6 3 9 9 7 12 6 3 4 3 4 1 2 1 2 3 3 5 3 5 5 6 6 3 3 2 7 7 6 5 3 3 5
25 25 25 25 24 23 21 21 20 20 20 16 2 8 9 3 4 5 13 15 12 14 4 3 5 5 4 2 2 3 3 2 5 4 0 4 5 5 8 5 0 5 1 2 5 5 5
Wind_Direction
21 19 23 20 17 17 18 16 13 13 8 1 355 351 343 338 338 333 332 326 326 323 320 318 323 332 328 50 290 310 341 118 123 142 114 114 90 110 104 109 85 86 105 89 119 120 115
15 19 20 21 16 18 18 17 17 13 6 2 356 350 347 341 335 330 326 324 322 318 316 313 324 337 56 76 304 329 332 168 107 97 111 124 135 115 83 58 40 108 105 100 76 98 114
3 4 10 13 13 12 12 13 16 13 8 3 356 350 345 343 335 327 323 322 319 315 312 308 333 18 58 185 336 352 15 327 105 123 97 90 125 88 120 96 110 115 103 101 98 60 113
1 359 1 1 6 9 11 9 12 10 9 4 357 350 346 342 335 329 324 320 317 313 312 301 18 46 143 311 345 21 1 66 80 87 101 106 92 90 80 123 100 107 96 133 177 206 174
360 3 3 360 1 5 12 11 10 6 6 1 357 352 344 344 334 332 326 318 313 315 309 293 56 60 105 332 45 322 23 93 90 82 82 104 77 84 124 124 113 26 153 147 184 178 151
348 354 355 1 4 2 4 12 10 6 1 358 354 353 345 337 337 333 328 317 310 351 360 303 71 64 6 322 312 335 344 28 92 52 70 59 74 105 134 178 171 168 141 179 197 187 192
348 351 355 359 359 1 1 3 5 2 358 356 352 351 347 336 336 334 345 359 15 360 32 353 291 143 233 284 292 8 350 47 36 52 93 32 134 157 170 247 121 125 136 155 214 188 192
347 343 346 347 352 353 355 355 2 0 0 354 350 350 347 337 332 340 17 56 64 277 318 303 267 275 238 155 35 352 350 111 65 106 107 71 161 164 129 98 94 84 140 183 109 190 214
338 343 343 345 347 352 354 356 356 359 357 354 349 347 347 338 328 28 15 85 320 235 240 301 264 245 212 103 145 295 26 122 104 97 131 175 164 147 154 155 128 146 183 187 173 132 206
328 336 337 338 342 347 350 352 354 357 355 352 346 346 348 337 72 333 4 335 333 222 46 276 250 292 70 135 52 229 21 103 47 144 110 86 95 153 161 203 176 95 174 149 139 171 269
305 321 330 333 336 341 344 347 347 352 353 347 346 344 344 352 309 348 313 328 322 85 40 274 210 284 23 135 108 13 331 52 129 130 144 196 173 167 168 199 159 137 131 122 134 87 295
328 317 318 327 327 333 338 340 343 346 348 345 341 342 343 355 285 302 323 322 48 42 256 198 185 120 82 19 35 323 74 51 126 91 44 92 332 26 0 41 54 147 94 70 73 91 280
308 327 319 318 319 324 331 333 336 341 342 344 338 331 327 303 286 328 324 31 47 143 314 206 174 153 124 143 87 57 60 61 145 111 130 30 343 329 54 89 84 85 97 59 221 237 234
278 288 314 314 319 319 325 330 333 335 339 342 336 321 289 257 294 346 7 63 122 242 242 358 109 94 159 160 43 101 101 142 107 97 122 156 232 357 359 24 190 181 166 157 202 207 263
266 273 285 300 312 318 318 326 331 331 338 343 334 307 285 266 244 230 72 115 192 208 198 170 53 107 175 202 131 111 151 191 195 168 162 151 194 320 43 339 342 182 189 111 103 44 331
259 268 272 283 297 316 313 320 328 329 336 345 330 296 261 178 145 80 122 227 224 208 186 170 184 153 180 191 140 167 185 204 194 163 154 185 114 18 304 175 35 28 128 112 30 162 239
254 258 266 280 289 309 311 314 321 329 333 336 339 325 74 212 169 97 188 222 238 226 180 177 188 154 188 173 167 178 175 266 165 126 95 137 114 279 270 204 178 140 147 59 105 123 200
242 245 255 262 276 290 301 310 314 326 339 28 321 275 13 141 154 188 171 179 277 260 153 197 144 138 173 170 149 195 198 199 107 153 154 135 123 147 182 347 352 293 229 151 134 199 193
236 237 244 255 265 281 293 303 306 315 17 350 310 286 83 265 199 199 198 194 93 360 254 171 203 203 180 174 162 194 198 121 155 151 166 181 85 90 19 305 16 200 100 92 102 92 194
229 234 240 248 257 263 282 293 296 296 324 81 300 287 322 224 308 226 184 211 172 188 267 241 157 129 120 121 15 172 158 125 50 117 258 99 130 163 189 192 133 179 186 196 131 150 173
224 228 233 237 245 255 267 275 281 282 240 102 238 247 217 228 222 190 221 190 197 201 209 284 175 200 159 132 92 157 154 105 62 158 77 136 151 102 138 99 157 206 194 186 195 186 201
227 226 229 235 237 243 253 259 268 263 213 189 271 258 346 248 241 194 222 222 204 200 137 268 225 201 184 155 183 195 152 193 185 170 135 4 139 148 120 36 214 259 254 218 230 238 255
227 227 230 231 233 235 243 249 256 251 198 198 263 270 234 270 253 182 219 201 221 170 204 244 301 159 189 216 164 309 84 89 138 152 140 127 138 117 229 333 331 284 233 216 190 184 180
227 227 228 228 229 231 236 243 246 243 210 171 256 331 267 258 228 238 235 216 223 214 161 208 278 238 254 123 109 71 60 68 68 51 74 134 108 71 155 294 248 257 181 167 198 225 216
225 227 228 229 226 226 227 234 239 240 222 180 207 205 318 295 327 304 252 228 210 181 190 178 257 324 167 346 84 73 1 27 24 29 24 69 123 107 159 208 309 262 188 159 180 176 172
229 229 228 226 225 225 226 231 237 239 227 178 202 194 172 288 236 7 304 231 216 166 162 200 206 21 51 47 94 146 178 175 189 100 52 75 71 116 161 171 227 239 194 173 167 261 173
229 230 227 224 221 223 226 230 235 236 223 177 214 188 188 247 272 287 277 260 204 173 160 167 156 51 22 48 114 159 185 174 164 169 168 115 55 149 150 212 281 234 162 147 157 172 149
229 229 226 223 221 223 225 229 235 228 216 181 207 206 191 233 267 263 269 284 330 152 152 138 82 288 60 212 185 180 158 194 144 153 181 158 149 173 117 173 260 161 106 199 146 145 139
228 225 221 217 217 220 222 228 229 216 207 183 199 196 220 219 272 303 274 259 261 257 295 211 175 148 195 128 219 126 133 166 155 190 57 192 184 177 194 208 230 190 112 129 157 148 153